Regional Weather Roundup
Issued by NWS San Angelo, TX

Home | Current Version | Previous Version | Text Only | Print | Product List | Glossary On
Versions: 1 2 3 4 5 6 7 8 9 10 11 12 13 14 15 16 17 18 19 20 21 22 23 24 25 26 27 28 29 30 31 32 33 34 35 36 37 38 39 40 41 42 43 44 45 46 47 48 49 50
000
ASUS44 KSJT 040111
RWRSJT
WEST CENTRAL TEXAS REGIONAL WEATHER ROUNDUP
NATIONAL WEATHER SERVICE SAN ANGELO TX
800 PM CDT THU SEP 03 2015

NOTE: "FAIR" INDICATES FEW OR NO CLOUDS BELOW 12,000 FEET WITH NO
SIGNIFICANT WEATHER AND/OR OBSTRUCTIONS TO VISIBILITY.

TXZ049-054-064>066-071>073-076>078-098-099-113-114-127-128-139-140-
154-155-168>170-040200
...LOCATIONS ACROSS WEST CENTRAL TEXAS...

CITY           SKY/WX    TMP DP  RH WIND       PRES   REMARKS
SAN ANGELO     CLEAR     89  57  33 E7        29.85S
ABILENE        CLEAR     88  61  40 SE10      29.88S
DYESS AFB      CLEAR     89  62  39 SE9       29.86S
JUNCTION       CLEAR     89  60  37 E10       29.86S
SWEETWATER     CLEAR     88  54  30 SE6       29.92S
BROWNWOOD      CLEAR     82  63  51 E8        29.86S
COLEMAN        CLEAR     88  62  40 E9        29.87S
SONORA         PTCLDY    90  57  33 SE8       29.91R
OZONA          FAIR      90  52  27 S9        29.90S
BRADY          CLEAR     90  63  40 E7        29.88R
$$

TEXAS PANHANDLE/OKLAHOMA PANHANDLE

CITY           SKY/WX    TMP DP  RH WIND       PRES   REMARKS
AMARILLO       PTCLDY    85  53  33 S15       29.92S
BORGER         PTCLDY    89  54  30 S13G23    29.86F
CANADIAN       CLEAR     89  57  33 S12G17    29.84S
DALHART        PTCLDY    90  47  22 S14       29.89S
DUMAS          PTCLDY    86  56  35 S22       29.90R
GUYMON         NOT AVBL
HEREFORD       MOCLDY    84  53  34 S12       29.93S
PAMPA          PTCLDY    87  53  31 S13G20    29.90S
PERRYTON       PTCLDY    89  55  31 S16       29.85S
$$

SOUTHERN PANHANDLE/SOUTH PLAINS/ROLLING PLAINS

CITY           SKY/WX    TMP DP  RH WIND       PRES   REMARKS
LUBBOCK        MOCLDY    86  56  35 SE10      29.92S
SNYDER         CLEAR     89  55  32 SE6       29.90S
CHILDRESS      CLEAR     89  57  33 SE13      29.85S
SEMINOLE       PTCLDY    87  48  26 S9        29.93S
$$

PERMIAN BASIN

CITY           SKY/WX    TMP DP  RH WIND       PRES   REMARKS
MIDLAND        PTCLDY    91  51  25 SE9       29.89F
ODESSA         PTCLDY    90  49  24 SE12      29.91S
WINK           PTCLDY    91  50  24 SE10      29.86S
$$

FAR WEST/SOUTHWEST MOUNTAINS/TRANS PECOS

CITY           SKY/WX    TMP DP  RH WIND       PRES   REMARKS
ALPINE         PTCLDY    84  47  27 SE13      30.04S
DRYDEN           N/A     92  54  27 SE6       29.85S
EL PASO        CLOUDY    86  48  26 NW8       29.96R
FORT STOCKTON  CLEAR     88  49  25 SE13      29.90S
GUADALUPE PASS CLOUDY    81  48  31 NE14      30.07S
MARFA          PTCLDY    82  50  32 SE14      30.03R
PECOS          CLEAR     91  47  21 E12       29.85R
$$

DALLAS/FORT WORTH METROPLEX

CITY           SKY/WX    TMP DP  RH WIND       PRES   REMARKS
DFW AIRPORT    PTCLDY    88  64  44 SE10      29.85S
FTW MEACHAM    CLEAR     90  62  39 SE9       29.84S
DAL-EXECUTIVE  CLEAR     88  64  44 E7        29.85F
GRAND PRAIRIE  NOT AVBL
ADDISON        PTCLDY    88  64  45 SE9       29.88S
MESQUITE       CLEAR     86  64  48 SE3       29.86S
LANCASTER      CLEAR     88  63  42 SE6       29.87R
$$

NORTH CENTRAL TEXAS

CITY           SKY/WX    TMP DP  RH WIND       PRES   REMARKS
SHRMAN/DENISON CLEAR     88  65  45 SE8       29.88S
GAINESVILLE    CLEAR     86  62  44 SE7       29.89R
BRIDGEPORT     CLEAR     85  64  48 CALM      29.88R
DENTON         CLEAR     88  65  46 SE9       29.85S
WAXAHACHIE     CLEAR     86  64  48 CALM      29.87S
GRANBURY       CLEAR     89  65  45 E7        29.86S
$$

WESTERN NORTH TEXAS

CITY           SKY/WX    TMP DP  RH WIND       PRES   REMARKS
WICHITA FALLS  CLEAR     87  62  43 SE10      29.85R
VERNON         CLEAR     92  48  21 SE10      29.85R
BRECKENRIDGE   CLEAR     89  59  36 SE6       29.86R
COMANCHE       CLEAR     86  63  45 SE8       29.87F
$$

CENTRAL AND SOUTH CENTRAL TEXAS

CITY           SKY/WX    TMP DP  RH WIND       PRES   REMARKS
AUSTIN/BERGSTM MOCLDY    87  69  54 SE14      29.83S
WACO           CLEAR     89  65  44 SE9       29.84R
HILLSBORO      CLEAR     86  64  48 NE6       29.86R
TEMPLE         CLEAR     88  64  45 SE7       29.85S
KILLEEN-GRAY   CLEAR     87  65  48 SE10      29.85R
FORT HOOD      CLEAR     87  66  48 SE10      29.84R
GEORGETOWN     CLEAR     88  66  48 E7        29.86R
LAGO VISTA     FAIR      86  65  48 E3        29.88R
SAN MARCOS     CLEAR     86  70  58 SE10      29.85R
NEW BRAUNFELS  MOCLDY    86  68  54 SE7       29.83R
RANDOLPH AFB   CLOUDY    85  67  54 SE6       29.85R
SAN ANTONIO    MOCLDY    87  66  49 E9        29.86R
STINSON        CLOUDY    88  66  48 E8        29.82R
PLEASANTON     NOT AVBL
LA GRANGE      PTCLDY    83  74  76 CALM      29.83F
GIDDINGS       PTCLDY    82  70  66 SE7       29.89S
$$

EAST TEXAS

CITY           SKY/WX    TMP DP  RH WIND       PRES   REMARKS
PARIS          CLEAR     84  59  42 S8        29.87F
CLARKSVILLE    NOT AVBL
TYLER          CLEAR     87  68  52 E6        29.87S
LONGVIEW       CLEAR     83  71  67 CALM      29.86S
PALESTINE      CLEAR     85  70  60 E3        29.87S
NACOGDOCHES    CLEAR     84  70  61 S5        29.86S
$$

TEXAS HILL COUNTRY AND EDWARDS PLATEAU

CITY           SKY/WX    TMP DP  RH WIND       PRES   REMARKS
LLANO          CLEAR     90  63  40 SE8       29.88R
HORSESHOE BAY  FAIR      88  64  45 SE6       29.86R
KERRVILLE      PTCLDY    85  64  49 E6        29.88R
FREDERICKSBRG  CLEAR     85  61  44 SE5       29.89R
ROCKSPRINGS    CLEAR     86  59  39 SE3       29.92S
HONDO          CLEAR     88  66  48 SE15      29.85R
UVALDE         CLEAR     90  61  38 E6        29.82R
DEL RIO        CLEAR     93  59  31 SE7       29.78S
$$

SOUTHEAST TEXAS

CITY           SKY/WX    TMP DP  RH WIND       PRES   REMARKS
COLLEGE STN    CLEAR     85  69  58 S8        29.85S
CALDWELL       PTCLDY    82  73  74 SE10      29.88S
CROCKETT       CLEAR     82  73  74 NE5       29.88S
BRENHAM        PTCLDY    81  73  78 CALM      29.86S
HUNTSVILLE     CLEAR     87  70  56 SE3       29.86R
CONROE         CLEAR     84  71  65 SE5       29.86S
HOUSTON BUSH   PTCLDY    82  72  71 SE8       29.85S
HOUSTON HOBBY  PTCLDY    83  73  72 SE3       29.85S
PERLAND        CLEAR     84  73  69 S5        29.87S
WHARTON        PTCLDY    80  74  80 E6        29.86S
$$

THE UPPER TEXAS COAST

CITY           SKY/WX    TMP DP  RH WIND       PRES   REMARKS
ORANGE         CLEAR     80  71  72 CALM      29.89S
PORT ARTHUR    PTCLDY    79  74  84 SE5       29.86F
GALVESTON      PTCLDY    84  75  74 SE10      29.88R
ANGLETON       CLEAR     82  75  79 SE5       29.86S
BAY CITY       CLEAR     81  77  86 SE5       29.85S
$$

TEXAS COASTAL BEND, RIO GRANDE PLAINS DEEP SOUTH TEXAS

CITY           SKY/WX    TMP DP  RH WIND       PRES   REMARKS
VICTORIA       PTCLDY    81  77  88 SE10      29.84F
BEEVILLE       FAIR      84  75  73 SE8       29.82S
ROCKPORT       CLEAR     84  75  74 SE13      29.83R
PORT ARANSAS   PTCLDY    83  77  82 E12       29.83R
PORT LAVACA    NOT AVBL
CORPUS CHRISTI PTCLDY    85  75  72 E14       29.82R
KINGSVILLE NAS PTCLDY    85  77  77 SE10      29.82R
COTULLA        PTCLDY    93  67  42 E12       29.80R
LAREDO         MOCLDY    95  62  33 NE7       29.79R
BROWNSVILLE    CLEAR     83  76  79 SE10      29.82R
PORT ISABEL    CLEAR     85  78  80 SE15      29.82R
HEBBRONVILLE   NOT AVBL
MCALLEN        CLEAR     90  74  59 E13       29.79R
WESLACO        CLEAR     87  74  64 E8        29.79S
FALFURRIAS     CLEAR     86  73  65 E9        29.80R
EDINBURG       CLEAR     88  73  61 E10       29.80R
$$


USA.gov is the U.S. government's official web portal to all federal, state and local government web resources and services.